Theta_e
298 298 298 299 299 300 300 300 300 301 301 301 301 301 302 302 303 304 305 306 308 310 312 314 313 314 315 316 318 317 315 314 308 311 315 317 316 313 313 314 314 316 315
297 297 298 298 298 298 298 298 298 298 299 299 299 299 299 300 300 300 300 301 301 301 302 302 303 304 305 307 309 310 310 312 311 308 311 312 313 316 316 313 314 314 316
296 296 296 295 295 295 295 295 296 296 296 296 296 296 296 297 297 298 299 299 299 299 300 300 300 301 301 302 303 303 304 305 306 306 306 310 311 313 312 313 313 312 313
295 295 294 293 294 294 293 293 293 293 293 294 294 294 295 295 295 296 296 297 298 298 299 299 299 299 299 299 299 299 299 299 301 302 303 304 308 309 310 310 307 308 308
294 293 292 292 293 292 291 291 291 291 291 292 292 293 294 295 295 296 296 296 296 297 298 297 298 296 291 294 297 297 298 297 296 295 295 297 299 301 301 308 306 310 307
292 291 290 290 289 289 289 288 288 288 289 290 291 291 292 293 294 294 294 294 294 294 294 294 296 292 294 293 294 294 295 295 294 294 295 294 296 298 300 302 305 303 301
291 289 288 288 287 287 286 286 285 286 288 288 290 291 291 293 293 293 292 292 292 292 292 293 293 294 292 295 295 294 294 294 295 296 294 296 296 299 299 299 300 302 304
288 287 286 286 286 285 285 285 284 285 286 287 288 290 290 291 292 292 291 291 291 292 293 293 293 293 294 293 293 291 291 292 293 294 295 296 299 301 301 301 301 301 303
286 285 285 285 284 284 283 283 284 284 285 286 287 288 289 290 291 291 291 290 290 290 291 292 293 292 292 292 291 289 289 289 292 293 294 295 295 296 297 299 297 296 296
286 285 285 284 283 283 283 282 283 283 284 284 285 287 287 288 290 291 291 290 289 289 289 289 288 289 290 291 290 289 287 288 289 289 290 291 293 295 295 297 298 296 297
284 283 283 282 282 282 281 282 282 282 283 283 284 285 286 287 289 291 292 290 288 288 288 288 289 290 291 291 292 289 288 289 289 288 288 288 290 292 295 299 301 300 298
282 281 280 280 280 281 279 280 280 281 280 281 283 284 286 287 287 290 291 291 291 288 287 288 288 290 290 291 290 290 290 289 286 285 286 287 289 290 293 298 301 301 303
277 276 275 277 278 279 277 278 278 279 279 280 282 283 284 285 287 289 290 290 290 288 288 288 289 289 290 289 288 288 285 285 284 284 284 285 289 292 289 286 285 285 285
272 273 274 274 275 276 277 278 277 277 277 279 279 281 283 285 286 287 287 288 287 287 288 288 288 288 289 287 283 285 284 284 283 283 283 285 286 285 285 285 285 283 281
271 272 273 273 272 273 274 275 276 277 278 277 278 280 281 282 285 288 288 287 286 287 286 286 285 286 283 283 282 281 282 282 282 282 282 283 283 283 282 283 283 281 278
270 270 270 270 270 270 271 271 276 278 279 281 282 282 284 286 288 289 288 287 287 287 284 283 283 282 280 280 279 278 280 280 281 281 281 281 280 280 280 279 280 278 277
265 267 267 268 268 268 268 269 268 272 276 279 281 283 286 286 287 287 287 286 286 284 281 280 279 277 277 277 278 276 277 279 280 280 280 279 280 278 278 277 277 277 275
260 264 264 265 265 265 266 267 267 267 268 271 277 282 284 284 283 283 285 283 276 275 275 274 273 273 274 275 275 275 276 276 277 278 277 277 277 277 276 275 275 273 273
260 262 263 264 264 264 265 265 266 267 268 272 277 279 276 279 280 280 278 271 270 269 269 269 271 271 272 273 274 275 275 275 275 275 275 275 276 276 274 274 273 272 272
264 264 265 263 264 264 264 265 266 267 269 273 273 272 270 268 267 265 265 264 265 266 268 268 269 270 270 272 273 274 274 273 273 273 273 273 273 273 272 271 270 269 268
264 264 264 264 264 264 263 264 266 267 268 269 269 268 276 265 263 263 263 264 264 265 266 267 267 267 268 268 271 272 272 272 271 271 271 271 271 270 270 270 269 269 269
262 262 262 262 262 263 264 265 266 266 266 266 264 264 271 263 262 263 264 264 265 265 266 266 266 266 266 266 267 269 269 269 269 270 270 270 270 270 269 268 268 268 267
262 262 262 262 262 263 263 261 261 261 262 263 263 262 263 263 263 264 264 265 265 265 266 265 265 265 266 266 266 266 266 266 267 269 269 268 268 267 268 267 267 265 265
259 258 258 259 257 257 259 259 259 260 261 262 262 263 263 264 264 264 264 265 265 265 265 264 265 264 264 265 265 265 266 267 267 267 268 267 266 266 266 265 264 264 264
254 255 255 254 254 255 256 257 260 261 261 261 262 263 264 264 264 264 264 264 264 264 263 264 264 265 265 266 266 267 267 265 266 267 267 266 265 265 264 264 264 263 263
253 254 253 255 256 257 258 258 257 258 260 262 263 263 264 264 264 264 264 264 264 263 263 263 263 264 265 266 268 270 270 269 266 266 266 266 265 264 264 263 263 262 262
Wind_Speed
5 5 5 4 4 4 3 2 2 2 3 3 4 5 5 5 5 5 6 7 8 9 9 10 13 13 11 11 11 12 13 14 18 17 14 14 17 13 13 13 15 16 14
4 4 4 3 3 3 3 2 2 3 3 3 3 5 6 6 6 6 7 6 7 8 9 10 11 9 13 13 12 15 14 14 15 25 17 15 18 16 15 16 14 13 14
5 5 4 4 3 2 2 3 3 4 5 5 4 4 5 6 7 7 8 9 8 8 9 10 11 12 12 10 12 13 13 13 15 17 21 13 14 12 14 15 15 15 12
6 5 5 4 3 2 2 3 4 5 5 5 5 5 5 6 6 7 7 9 10 9 10 10 12 13 14 15 13 16 16 15 15 16 17 17 15 14 12 14 12 11 12
7 6 6 5 3 1 1 2 3 4 5 6 6 6 7 6 5 8 10 12 13 12 11 13 13 12 15 17 12 15 17 15 13 14 16 16 17 15 10 12 14 14 13
6 6 5 5 2 2 3 3 3 4 5 5 6 7 8 5 9 12 11 10 12 13 13 14 13 13 15 19 20 23 21 19 19 16 16 18 22 17 17 14 13 13 13
7 6 6 5 5 4 4 4 4 4 4 6 7 7 8 8 11 12 13 9 11 12 13 13 12 10 12 16 20 22 22 24 26 22 23 22 24 20 18 19 21 16 16
8 7 6 6 5 5 5 5 4 4 5 6 7 7 8 7 12 14 14 10 11 13 13 13 15 14 14 14 16 16 16 17 19 16 21 24 24 21 23 19 21 21 16
10 9 8 6 5 5 6 5 4 4 5 6 6 8 9 10 13 13 13 10 10 11 11 11 13 15 17 19 16 18 18 18 18 28 33 37 40 40 33 17 15 14 15
11 9 7 6 6 6 5 5 4 4 6 6 8 8 9 11 15 15 12 7 11 9 9 10 13 14 20 18 15 15 19 20 18 21 21 24 28 27 33 26 18 18 13
7 7 6 6 6 6 4 3 4 5 6 7 9 8 8 8 11 14 13 8 8 9 9 9 9 16 21 23 21 15 19 23 24 19 20 17 17 18 16 16 18 17 15
8 6 6 5 4 3 4 4 5 5 6 7 8 7 6 6 10 9 12 13 14 11 11 10 11 19 25 26 19 24 25 25 14 14 16 16 15 13 14 14 15 13 14
5 4 4 4 3 3 4 5 4 5 5 6 6 6 5 3 5 10 11 14 12 9 9 15 27 26 24 16 18 22 20 10 12 13 16 14 13 12 8 2 3 6 8
7 5 4 2 2 3 3 4 4 3 5 6 6 7 7 7 6 6 4 6 8 8 12 11 19 21 16 14 10 10 8 8 10 12 13 11 8 6 4 1 1 2 4
4 3 2 2 3 3 4 4 5 5 5 5 6 8 10 9 8 13 11 7 8 11 14 10 9 9 8 8 7 7 8 7 8 9 10 8 8 7 7 6 2 3 6
3 3 2 2 2 3 4 6 7 11 14 17 19 16 11 19 21 19 13 17 20 22 12 11 9 8 8 9 8 8 7 8 7 8 7 7 7 8 7 7 6 7 8
1 3 2 3 3 3 3 5 9 4 10 16 19 20 21 20 19 19 21 18 20 18 8 7 7 7 7 8 8 7 7 7 8 7 6 7 7 7 8 7 7 7 8
1 3 2 3 3 3 3 4 6 6 7 7 13 15 14 18 22 21 21 17 6 5 3 5 5 6 6 7 7 7 7 6 6 6 6 8 7 7 8 8 8 8 8
2 3 3 4 3 4 3 4 4 5 7 8 7 8 10 18 17 14 12 3 4 3 2 2 4 4 5 5 6 5 6 6 6 6 6 9 8 7 8 8 10 13 12
2 5 6 4 2 3 2 4 5 7 6 7 6 7 4 4 4 4 2 3 3 3 3 3 4 4 5 5 5 5 6 7 7 7 7 8 8 7 8 8 8 9 10
2 4 6 5 4 3 3 4 6 7 5 5 7 5 12 3 3 3 3 3 4 5 3 3 4 4 5 5 5 6 6 6 6 6 6 7 7 7 7 8 8 8 8
1 3 4 4 3 4 5 6 6 4 4 5 4 4 8 2 2 3 3 3 4 5 5 4 4 5 5 5 6 6 6 6 6 6 6 6 7 7 7 7 7 7 7
2 1 4 3 3 6 5 3 2 3 3 1 1 2 3 3 3 3 4 4 5 5 6 6 5 5 6 6 6 6 6 6 5 4 5 6 6 6 6 7 6 6 6
2 1 1 3 2 2 1 4 3 3 3 3 3 4 4 3 4 5 5 5 5 5 5 6 6 9 7 7 6 6 6 6 5 6 7 6 6 7 7 7 7 7 7
1 2 2 1 1 2 4 4 3 3 4 4 4 4 3 5 4 5 5 4 5 5 6 6 6 8 10 10 10 10 10 12 10 9 6 8 9 9 7 6 6 7 8
2 2 2 3 2 3 4 4 4 2 3 4 3 4 5 4 4 5 5 4 4 5 6 5 8 11 11 10 11 11 12 12 11 12 6 6 7 7 6 8 9 6 7
Wind_Direction
149 140 135 121 109 104 91 56 26 357 1 345 331 317 306 301 298 290 278 280 276 282 285 284 282 284 276 274 269 265 265 262 268 275 266 261 257 242 231 229 238 237 236
153 132 124 110 95 90 86 47 14 349 340 332 324 319 318 318 314 304 297 288 282 282 283 284 285 289 288 288 286 282 278 276 275 281 277 275 263 255 243 235 235 236 237
163 156 149 137 118 83 22 9 359 349 335 324 323 323 318 314 313 303 296 293 288 285 289 291 291 292 287 287 288 284 281 279 276 276 281 275 270 260 255 240 235 235 230
175 170 162 163 153 107 27 1 342 333 320 314 313 310 304 307 303 307 306 305 301 296 296 293 293 290 289 294 292 291 290 288 286 280 279 280 271 267 254 250 242 231 228
177 176 180 159 121 88 10 306 297 303 298 298 303 303 303 302 300 307 308 302 298 295 289 288 286 285 280 273 278 281 283 280 276 275 279 282 279 279 256 249 244 249 227
185 190 165 134 146 238 259 259 276 279 282 284 288 292 295 287 278 298 296 294 292 292 290 290 284 277 276 272 268 266 268 279 275 274 273 266 270 271 272 271 266 237 242
183 182 172 164 195 224 245 256 258 257 250 257 248 249 257 274 290 294 292 285 284 279 279 281 278 275 273 280 278 275 273 269 264 273 275 267 271 263 261 263 259 255 252
178 177 177 185 209 227 241 246 245 238 253 256 257 258 260 268 269 278 281 281 274 271 271 271 279 280 276 281 284 282 278 274 272 268 265 272 269 268 255 252 256 259 249
182 184 183 183 205 227 247 259 260 261 264 264 267 276 279 276 267 274 280 281 278 279 281 281 280 278 282 282 291 293 291 284 281 274 267 266 267 266 261 271 249 246 248
187 185 166 173 200 221 235 249 246 234 258 257 257 253 260 269 269 293 281 282 286 292 286 280 269 272 278 281 293 298 296 293 294 292 282 276 270 263 256 248 251 246 248
152 147 158 179 200 219 228 221 256 266 262 258 260 250 241 249 259 288 287 290 287 290 292 294 297 285 288 294 295 292 285 295 296 294 288 279 271 261 254 251 238 236 238
149 153 158 185 209 213 227 258 255 262 271 271 267 262 236 232 244 273 282 289 293 299 301 299 297 299 300 298 299 295 295 303 297 296 292 286 278 262 254 253 242 229 229
118 148 170 190 208 218 233 252 255 247 259 272 276 285 276 234 257 251 268 278 291 290 291 300 303 306 299 297 300 306 310 305 297 300 296 295 292 268 260 214 61 82 58
157 175 185 203 267 256 257 260 249 262 290 296 300 299 304 302 289 288 263 286 286 289 297 297 299 297 292 296 307 307 300 303 299 306 299 303 306 314 308 309 92 94 80
144 184 210 220 252 278 268 265 266 247 247 280 284 290 293 288 287 293 293 304 306 303 309 295 298 304 308 311 312 311 306 315 317 316 304 326 356 342 352 359 40 41 93
175 196 214 251 276 291 303 302 268 279 294 293 289 278 276 274 291 298 299 306 307 312 308 303 305 309 308 313 314 316 315 322 330 314 317 352 13 8 12 22 40 71 94
308 304 304 304 301 303 333 308 309 294 313 304 295 289 285 290 303 308 302 303 308 314 299 306 307 315 313 310 313 317 316 320 325 318 338 11 24 33 27 36 42 59 64
266 269 254 262 270 283 273 278 273 316 324 302 293 293 310 317 317 310 304 309 314 320 313 313 309 314 316 316 316 323 318 334 334 344 354 29 28 40 50 48 49 58 61
245 270 262 273 255 249 267 269 288 288 275 293 296 312 320 314 316 326 344 322 293 309 320 327 328 325 324 327 322 327 333 352 344 9 358 46 29 47 54 58 61 58 61
269 268 265 250 259 291 284 308 293 277 286 288 311 299 302 343 346 332 355 329 325 320 351 359 359 343 349 341 338 345 3 12 5 18 7 48 37 40 47 54 58 66 64
296 329 317 301 300 303 291 274 268 263 282 301 293 294 310 41 323 330 344 7 341 326 359 19 10 4 360 358 350 4 16 22 19 23 14 35 50 53 54 61 64 68 75
222 287 287 292 297 283 274 256 255 286 306 298 304 326 3 44 18 350 17 1 359 340 335 25 36 16 9 16 1 12 22 23 15 20 36 30 53 62 61 64 67 66 67
257 241 266 283 258 260 254 273 310 333 331 323 347 20 26 27 22 26 3 27 10 3 350 19 25 25 16 21 13 16 16 14 8 17 50 52 52 61 64 70 70 69 66
269 223 261 269 285 271 334 31 30 24 21 22 24 57 53 31 18 23 13 18 28 17 15 16 34 33 24 31 18 21 20 13 13 25 48 67 65 69 74 73 68 73 77
79 86 108 166 78 30 58 61 39 43 48 44 29 36 19 50 23 33 24 19 27 28 28 20 23 26 25 30 31 31 37 35 35 37 40 59 68 65 70 71 77 77 79
107 105 82 56 76 82 65 60 45 10 51 53 48 45 48 47 37 35 26 21 23 37 35 25 25 26 24 20 23 40 44 48 43 41 44 53 63 64 66 74 78 77 76